map of BFV home
BFV - Airport
Location
City:  Buri Ram, Buri Ram, Thailand
ICAO:VTUO
IATA:BFV

Details
Type:Airport (Aerodrome, Airfield)
Latitude:1513'46"N (15.229539)
Longitude:10315'12"E (103.253231)
Datum:WGS 1984
Elevation:590 ft (180 m)
Variation:0.73W (WMM2015 magnetic declination)
-0.01 annual change
Runways:1
Longest:6890 × 148 ft (2100 × 45 m), paved

Time
Time Zone:UTC+7
Local Time:

Weather
METAR:VTUO 240700Z VRB03KT 8000 TSRA FEW018CB SCT020 26/24 Q1010 A2984 TSRA OVER AD INFO H RWY 22
TAF:VTUO 240500Z 2406/2506 26005KT 9999 FEW025 SCT100
TEMPO 2410/2413 VRB10KT 5000 TSRA FEW018CB SCT020 BKN100
BECMG 2418/2420 29005KT 7000 FEW030

Related Locations
Nearby:
Farthest:SJA: 12341 mi / 19861 km
San Juan de Marcona [San Juan de Marcona Airport], ICA, PE

Find:

   beyond  
but within

Other Information
Maps:
NOTAMs:
Links:
Sources:

  
flag of Thailand   

Sectional Chart

Flight Planning
at skyvector.com

Satellite Image

Google Maps Satellite view

 

Copyright © 2004-2017 Karl L. Swartz. All rights reserved.
The Great Circle Mapper name and logo are trademarks of the Great Circle Mapper.
All other trademarks mentioned herein belong to their respective owners.
Please see credits for attibutions and further copyright information.

  Follow gcmap on Facebook Follow gcmap on Twitter Follow gcmap on Google+ GCmap on LinkedIn

hCard Microformat

Geo Microformat